Location: Cactus School
(34.5700°N, 118.0931°W)
Time: 15:50:01
(UTC-08:00)

A-11 Canister half - Pass Details

Date: 22 November 2019
Orbit: 1515 x 1685 km, 47.2° (Epoch: 12 December)

Event Time Altitude Azimuth Distance (km) Brightness Sun altitude
Rises 18:48:08 0° 276° (W) 4,895 12.9 -25.3°
Reaches altitude 10° 18:51:34 10° 284° (WNW) 3,924 12.0 -26.0°
Maximum altitude 19:00:59 41° 352° (N) 2,277 9.8 -27.9°
Enters shadow 19:04:37 32° 33° (NNE) 2,596 9.8 -28.7°
